Theta_e
323 324 324 324 324 325 324 324 325 324 325 324 324 324 324 324 323 323 321 329 327 349 343 327 323 327 334 334 333 332 317 315 317 317 317 322 321 325 331 329 333 339 337 338 342
321 322 323 322 324 324 324 324 324 324 323 323 323 323 323 324 318 312 328 349 350 349 323 320 321 326 326 327 324 316 311 315 322 324 321 324 324 320 320 328 335 337 340 340 341
320 320 323 322 323 323 323 323 323 323 323 323 323 323 323 323 315 315 354 352 349 345 321 322 325 329 322 321 318 315 310 317 315 316 323 313 312 316 316 316 334 333 336 338 339
320 320 322 322 322 322 323 323 323 322 322 322 322 322 324 321 305 323 348 352 350 332 323 321 323 319 315 312 318 311 315 314 312 312 312 310 312 312 315 318 331 339 339 339 338
321 321 321 321 321 322 322 322 322 321 321 321 321 323 321 312 310 336 349 347 335 329 325 329 326 318 312 313 315 312 313 314 315 314 314 315 312 312 313 319 325 341 340 338 338
321 321 321 321 321 321 321 321 321 320 321 321 322 323 314 304 325 333 329 327 325 328 328 329 324 320 315 314 311 313 312 313 314 314 315 314 313 311 313 317 328 340 338 338 339
320 320 320 320 320 320 320 320 320 320 320 321 323 323 314 312 323 332 330 325 323 322 322 325 323 316 315 310 315 312 307 310 312 312 311 314 309 310 314 315 316 338 338 339 339
320 320 319 319 319 319 319 318 319 320 322 324 327 320 309 323 320 320 320 322 326 323 322 324 316 310 309 311 309 305 303 298 308 311 313 310 303 312 314 311 312 320 339 339 339
319 319 319 318 318 318 317 316 319 322 324 327 317 313 313 322 314 315 314 313 314 320 321 322 313 306 308 302 298 300 296 299 304 312 311 309 304 313 314 314 311 312 328 338 338
318 318 318 318 317 316 315 316 324 323 320 323 321 311 318 315 315 316 316 317 314 312 312 311 306 303 303 298 292 296 297 301 302 309 310 307 306 310 314 312 312 312 313 327 337
316 316 316 317 316 315 311 314 310 310 311 311 310 315 315 316 318 315 317 314 312 309 302 307 299 299 304 306 306 305 303 302 305 309 305 304 305 309 311 310 311 312 313 312 316
316 316 316 316 315 314 313 309 308 309 302 311 312 313 315 314 311 315 316 308 308 302 306 302 298 305 309 308 306 304 302 301 305 308 305 303 304 308 309 310 311 313 313 314 314
316 316 316 315 314 316 316 312 316 312 301 309 314 311 310 311 310 312 313 311 307 305 305 301 305 311 308 305 304 300 298 299 300 304 304 302 300 303 309 311 313 314 314 315 315
315 316 315 313 313 315 315 316 315 313 297 307 307 310 311 310 307 317 316 312 307 303 305 303 309 308 306 304 303 294 305 304 302 299 292 301 293 298 304 307 309 312 315 315 316
315 315 314 313 311 314 314 315 314 310 294 308 307 315 308 306 309 312 317 310 305 305 304 302 305 305 305 305 307 301 306 303 302 297 293 297 292 298 302 303 308 311 315 315 315
314 314 314 314 312 317 321 315 311 298 295 305 309 307 305 307 309 312 311 312 312 307 307 306 312 309 307 310 309 309 304 303 302 295 287 295 294 296 299 304 311 315 319 329 331
313 313 312 315 310 317 318 311 298 295 311 303 303 305 304 304 306 308 308 303 300 296 298 304 307 309 311 305 308 305 297 290 289 289 288 297 294 298 311 313 313 314 316 319 327
312 312 315 317 317 318 313 304 296 306 304 308 306 305 302 304 305 307 303 301 306 303 298 297 296 305 309 304 301 301 296 290 285 287 292 298 292 303 314 316 317 317 318 321 321
311 317 318 319 320 318 307 298 301 305 306 305 305 303 303 305 305 304 303 302 304 305 296 295 297 308 308 309 306 301 296 300 293 294 292 295 300 311 311 311 314 315 316 318 321
310 314 317 321 320 312 303 299 304 308 308 306 300 304 301 303 302 302 302 304 305 308 305 300 294 303 308 308 307 301 307 296 296 288 286 294 297 298 305 307 311 311 314 317 321
313 312 317 319 315 307 298 302 307 311 310 305 302 302 303 303 303 301 302 307 308 306 305 300 298 298 303 299 298 300 299 299 297 295 288 288 294 307 306 308 309 310 315 317 319
313 307 318 318 305 306 302 308 307 308 309 308 308 306 304 304 302 303 303 306 309 307 301 303 296 293 297 304 307 303 302 300 292 291 292 292 293 312 311 310 311 313 316 319 320
308 311 321 316 299 302 307 308 310 307 306 306 305 309 308 304 300 305 307 311 311 307 302 304 295 290 294 300 305 302 303 301 300 298 293 291 294 310 311 313 313 315 319 316 320
309 307 313 314 311 306 305 306 305 311 308 309 306 306 304 303 305 303 305 311 311 309 320 310 298 295 290 295 301 299 302 303 298 294 294 296 299 305 309 314 313 315 322 319 325
313 310 311 304 306 306 306 306 304 302 308 308 305 306 303 299 302 302 306 307 310 317 308 302 294 297 299 302 303 303 302 303 300 301 295 299 301 305 310 314 317 321 323 318 317
307 310 311 307 308 306 304 305 305 305 305 304 303 305 304 300 301 300 303 302 302 306 302 301 295 298 298 304 305 302 305 307 307 306 305 308 306 316 316 321 321 322 323 318 321
318 317 312 306 306 305 304 306 306 307 308 308 306 303 302 304 305 304 303 303 303 300 299 298 297 296 294 303 302 297 305 306 308 308 309 303 308 313 310 313 317 316 318 321 325
Wind_Speed
20 19 19 19 18 18 18 18 19 20 20 19 17 14 14 13 16 4 7 10 7 11 3 5 6 9 11 10 11 14 6 8 10 12 10 28 11 19 7 12 9 11 14 24 23
20 20 19 21 20 19 19 19 19 19 19 19 18 16 13 11 5 9 14 10 7 12 4 7 9 10 6 9 6 4 4 11 14 12 11 16 20 19 9 8 13 14 21 26 24
20 21 19 21 21 19 19 20 20 19 19 18 17 15 13 9 5 7 4 12 11 12 8 9 15 12 9 8 9 10 10 15 11 9 16 10 12 10 9 7 19 26 27 25 24
20 21 20 21 22 21 21 21 20 20 19 18 17 14 11 4 3 3 4 5 7 6 9 9 12 9 8 9 13 9 14 11 9 7 7 8 8 9 10 5 9 25 28 26 25
19 20 21 21 22 22 22 22 22 20 18 17 15 11 5 4 11 4 7 4 4 4 9 10 12 8 9 9 12 11 13 17 16 15 13 14 10 14 11 10 5 27 26 24 20
20 21 21 22 22 23 23 22 22 21 19 16 11 5 3 6 3 13 10 7 7 7 8 10 9 10 10 11 9 10 13 17 16 16 12 15 16 6 14 11 8 26 25 23 22
20 21 22 23 24 24 24 23 23 22 18 13 8 5 5 13 2 12 12 9 8 8 9 11 12 8 9 10 10 13 15 17 17 18 21 20 19 14 10 5 9 23 24 25 23
21 22 23 25 25 26 26 25 24 21 14 9 6 5 7 7 8 9 6 6 10 10 12 11 6 7 6 9 12 13 9 8 19 19 24 11 16 13 6 4 7 9 22 23 24
22 22 24 26 27 27 26 29 24 14 7 7 3 3 8 1 4 9 8 8 7 8 7 8 7 6 8 7 7 7 11 15 21 17 15 7 8 8 6 6 8 8 16 21 21
23 23 25 27 28 27 29 27 4 6 4 7 7 4 8 4 3 3 4 6 4 5 9 8 5 4 5 3 8 9 10 13 16 17 17 15 12 9 8 7 5 5 8 15 20
26 26 26 27 29 24 18 6 6 2 4 8 9 7 11 3 4 7 6 5 4 5 4 8 4 9 15 15 18 17 15 11 15 15 10 12 11 12 10 6 7 9 7 10 11
25 26 27 29 29 28 5 6 4 6 10 16 18 12 7 2 5 10 5 5 7 8 9 6 9 17 17 19 18 13 11 13 11 9 9 11 12 13 9 8 8 9 9 10 8
23 26 27 30 32 9 8 6 6 7 4 10 10 8 5 5 7 5 9 4 6 7 10 10 12 11 10 9 7 6 7 8 12 9 8 9 8 9 14 15 14 10 12 8 12
23 24 25 32 5 8 4 8 7 6 3 4 5 4 4 5 7 3 2 2 4 7 10 8 8 11 9 9 8 6 8 13 16 13 3 8 16 7 10 12 10 15 17 14 15
23 23 23 13 7 6 6 8 7 3 4 7 6 4 3 4 5 6 7 3 9 9 5 9 11 10 9 11 8 6 9 10 12 10 6 10 4 12 8 12 12 11 9 7 9
26 21 20 2 4 10 15 9 3 1 4 3 5 6 7 10 9 7 7 6 5 6 10 10 9 10 9 7 4 7 8 9 8 5 2 11 5 10 8 11 16 15 17 10 10
27 29 10 6 6 10 12 5 2 3 2 5 4 4 9 9 2 5 0 4 6 4 6 10 8 17 16 11 11 11 9 6 6 6 6 14 5 4 18 16 19 18 20 26 22
28 32 5 9 7 9 5 3 3 9 12 5 10 11 8 1 3 1 3 9 7 7 6 4 10 18 17 12 6 7 5 3 7 5 7 9 9 3 8 13 18 20 22 15 23
29 5 4 5 11 7 2 2 4 7 10 10 11 8 10 6 3 3 7 5 5 7 4 4 6 16 20 14 6 8 6 9 6 6 6 2 5 6 19 20 18 15 18 19 12
6 5 6 9 10 1 1 5 4 6 9 8 5 6 6 9 4 8 6 4 5 10 8 6 9 8 17 14 12 5 2 7 6 6 5 5 5 3 11 13 12 13 7 11 9
3 5 2 5 4 1 3 6 15 8 7 6 9 8 12 10 8 6 6 7 9 8 7 5 5 9 10 6 15 12 4 4 2 2 4 3 3 6 2 3 6 9 6 5 12
5 4 3 2 1 4 5 7 4 4 9 3 4 6 6 9 7 7 9 5 5 4 4 3 1 5 15 23 19 5 2 3 4 8 3 4 7 8 4 3 5 6 9 5 3
5 5 7 3 3 4 8 13 7 3 6 4 7 7 10 6 5 6 8 13 6 3 5 1 2 7 10 10 18 12 11 9 2 1 6 4 8 4 6 9 6 8 9 6 8
4 5 3 1 4 7 7 8 11 14 4 2 6 8 7 8 9 7 12 8 12 7 8 5 2 2 5 9 10 16 20 17 9 9 12 9 16 8 10 11 5 2 7 2 9
4 4 5 5 9 12 10 10 12 14 13 6 1 6 8 6 8 9 7 9 13 5 6 5 2 5 9 14 18 19 18 20 13 11 6 8 8 6 9 9 6 6 4 6 6
4 7 6 8 9 10 10 7 13 14 10 10 5 11 6 6 6 7 8 7 3 10 9 7 7 8 12 16 17 19 19 13 13 13 8 9 5 5 5 8 11 13 11 3 1
4 6 4 6 8 9 10 13 15 12 5 7 8 8 7 8 8 8 7 5 8 8 9 8 6 6 14 9 13 13 7 8 6 7 2 11 4 7 8 8 4 5 6 9 1
Wind_Direction
351 349 345 342 339 337 334 330 326 324 324 322 323 326 323 318 303 206 244 235 187 179 150 254 211 248 251 256 253 265 271 272 177 185 222 281 289 300 145 122 192 186 145 143 146
347 342 341 341 336 333 328 325 321 318 319 318 320 323 323 323 279 244 233 209 171 153 220 211 229 228 242 262 254 239 239 256 193 204 233 254 283 289 343 157 93 92 120 138 146
343 339 334 334 331 328 324 321 317 316 315 314 316 318 317 316 285 249 21 155 164 175 248 231 245 232 242 261 268 266 249 259 279 261 212 249 313 312 331 336 141 143 144 149 154
345 338 329 329 327 322 319 316 313 312 312 311 313 314 315 245 289 87 147 143 157 194 251 266 252 266 272 270 269 278 273 275 277 308 306 289 303 315 295 277 122 148 151 155 163
332 332 328 325 323 319 317 314 311 308 306 306 309 309 289 229 249 130 131 124 173 212 224 239 260 255 265 269 286 300 315 319 314 318 313 308 301 289 296 295 285 149 157 161 169
332 329 324 322 319 317 315 312 307 302 302 303 300 307 243 250 194 158 154 147 227 215 225 252 270 271 270 287 305 303 305 302 310 292 286 278 275 259 267 260 138 155 162 166 172
330 329 323 321 319 316 314 310 303 298 297 296 274 239 259 254 253 168 163 183 208 207 242 263 270 282 294 305 297 303 311 310 302 294 283 280 290 275 238 272 227 163 170 174 175
329 328 323 321 319 318 316 311 301 294 289 264 231 232 248 237 239 254 206 221 205 219 234 248 300 319 315 316 318 305 308 294 277 272 275 273 264 238 239 248 283 178 173 179 178
328 326 324 323 322 321 317 307 298 281 226 160 192 233 277 230 230 225 220 231 260 232 235 258 279 268 315 300 310 282 272 267 273 271 270 281 301 275 205 250 271 282 159 180 184
332 330 326 323 321 324 322 298 294 131 215 202 262 280 279 253 70 342 285 268 255 266 239 234 240 241 265 227 251 253 271 285 296 304 315 315 306 305 287 235 247 229 260 176 185
335 333 327 323 322 327 338 350 359 36 260 250 291 231 295 23 181 229 243 182 262 293 295 270 201 227 237 229 238 250 262 289 303 304 313 300 299 293 291 284 262 241 231 239 187
333 329 327 326 322 317 271 26 31 249 302 284 260 262 263 275 284 224 147 215 170 221 238 261 244 244 248 256 258 262 268 273 276 273 293 296 291 294 299 281 265 235 251 228 240
331 329 330 326 320 304 319 39 306 0 273 285 229 234 246 162 262 139 177 255 248 230 243 221 250 279 284 281 304 307 307 305 311 324 313 294 299 287 273 269 267 254 229 222 229
330 329 331 332 343 344 358 348 343 328 305 194 187 234 230 220 258 267 89 353 295 289 298 283 309 305 316 326 324 307 319 330 326 333 287 331 300 299 281 274 263 248 245 231 244
328 330 330 327 300 305 330 320 319 25 16 188 109 143 262 230 315 187 140 227 248 266 324 269 292 291 293 270 263 273 296 277 282 278 301 285 287 276 284 296 281 274 260 188 261
323 325 337 113 209 254 289 310 322 351 247 139 146 198 206 221 234 173 197 186 255 292 271 261 284 244 271 317 16 327 329 334 316 273 324 258 241 286 276 5 358 13 12 91 52
320 313 309 282 247 327 309 313 337 235 203 100 37 341 332 292 204 313 24 276 219 193 274 333 315 7 29 0 347 348 343 316 334 341 255 295 338 98 4 33 34 5 32 14 15
317 311 225 211 238 291 313 325 259 316 16 44 6 332 278 351 319 194 315 281 1 53 44 17 324 15 344 319 290 306 250 211 281 279 291 316 289 330 348 49 37 22 350 34 25
317 301 242 229 221 249 354 298 298 9 20 356 320 293 282 122 180 322 271 282 86 78 82 344 311 333 314 329 350 300 333 266 289 293 314 316 329 339 355 8 31 29 9 343 51
312 285 261 234 184 253 344 267 294 54 27 355 320 304 337 347 319 356 328 74 80 68 68 334 311 281 332 325 312 333 270 17 354 341 313 339 315 291 348 345 355 357 29 319 353
262 296 184 165 151 356 243 262 319 62 84 346 343 326 337 335 354 342 311 47 45 33 30 22 47 309 332 327 308 315 7 34 152 238 236 282 271 207 234 337 341 327 344 299 306
309 290 166 194 328 225 235 262 211 336 328 219 258 289 278 306 325 342 327 1 63 49 41 59 287 310 293 286 267 308 141 155 139 276 256 224 263 146 127 59 40 327 291 292 317
305 270 268 153 267 280 313 322 332 336 315 350 329 329 350 316 331 314 307 318 323 309 129 28 310 314 324 330 342 357 332 320 251 28 230 181 259 56 29 20 47 345 337 313 332
290 299 252 245 235 296 317 317 336 332 166 270 283 311 324 318 306 267 272 296 323 83 170 141 150 233 272 272 303 312 317 312 289 291 282 249 263 17 7 359 329 342 329 3 23
242 284 20 324 344 336 329 331 321 316 318 281 219 278 270 279 285 280 317 345 338 139 359 39 284 285 283 298 287 281 280 279 297 5 355 356 50 11 349 319 349 335 11 16 8
290 332 346 303 306 308 291 272 277 275 278 305 335 327 320 329 3 356 18 7 296 332 343 326 295 286 281 278 294 306 309 12 347 14 23 26 38 300 338 6 25 24 11 105 346
346 340 332 300 301 296 284 287 281 300 335 340 319 351 330 324 5 336 323 295 270 270 273 260 259 279 277 292 312 300 10 18 72 56 8 48 305 1 353 325 353 34 3 323 113